[[{"header":{"parameterUnit":"m.s-1","parameterCategory":1,"la1":30.2991,"la2":30.254,"lo1":-89.0895,"lo2":-89.0444,"dy":0.0017,"dx":0.0017,"nx":28,"ny":28,"refTime":"2025-08-04T09:00:00:Z","depth":0,"parameterNumber":2,"parameterNumberName":"U-component_of_WINDS"},"data":[0,0,0,0,0,0,0,0,0,0,0,0,0,0,0,0,0,0,0,0,0,0,0,0,0,0,0,0,0,0,0,0,0,0,0,0,0,0,0,0,0,0,0,0,0,0,0,0,0,0,0,0,0,0,0,0,0,0,-1.1726,-1.1726,0,-1.1716,-1.1716,-1.1715,-1.1608,-1.1605,-1.1602,-1.16,-1.1592,-1.1594,-1.1597,0,0,0,0,0,0,0,0,0,0,0,0,0,-1.1656,-1.1658,-1.1726,-1.1726,-1.1726,-1.1716,-1.1716,-1.1715,-1.1608,-1.1605,-1.1602,-1.1598,-1.1591,-1.1594,-1.1597,0,0,0,0,0,0,0,0,0,0,0,0,0,-1.167,-1.1658,-1.1726,-1.1671,-1.1666,-1.1716,-1.1716,-1.1715,-1.1609,-1.1605,-1.1601,-1.1597,-1.159,-1.1594,-1.1597,-1.17,0,0,-1.1608,-1.1609,0,0,0,0,0,0,0,0,-1.1669,-1.1673,-1.1679,-1.1675,-1.1669,-1.1659,-1.1688,-1.171,-1.161,-1.1631,-1.16,-1.1595,-1.1618,-1.1619,-1.1626,-1.17,-1.1699,-1.1608,-1.161,-1.1612,-1.1613,0,0,0,0,0,0,0,-1.1669,-1.1673,-1.1722,-1.168,-1.1673,-1.1648,-1.1645,-1.1692,-1.1647,-1.1628,-1.1621,-1.1621,-1.1614,-1.1623,-1.1625,-1.1699,-1.1608,-1.1611,-1.1613,-1.1615,-1.1857,-1.1861,0,0,0,0,0,0,-1.1675,-1.1673,-1.1722,-1.1722,-1.1659,-1.1652,-1.1649,-1.1666,-1.1646,-1.1639,-1.1624,-1.1616,-1.1619,-1.1621,-1.1624,-1.1744,-1.1612,-1.1615,-1.1617,-1.1853,-1.1858,-1.1863,0,0,0,0,0,0,-1.1674,-1.168,-1.1723,-1.1695,-1.1698,-1.1658,-1.1678,-1.1668,-1.1676,-1.1643,-1.1635,-1.1641,-1.1616,-1.1619,-1.1682,-1.1742,-1.1616,-1.162,-1.1848,-1.1855,-1.1861,-1.1984,0,0,0,0,0,0,-1.1672,-1.1681,-1.1719,-1.1697,-1.17,-1.178,-1.1681,-1.1671,-1.1682,-1.1671,-1.1656,-1.165,-1.1613,-1.1677,-1.1685,-1.1744,-1.1622,-1.1842,-1.1851,-1.1858,-1.1974,-1.1994,-1.201,0,0,0,0,0,-1.167,-1.1754,-1.1721,-1.1728,-1.1747,-1.1784,-1.1786,-1.174,-1.1688,-1.1726,-1.1705,-1.1651,-1.1734,-1.1684,-1.1693,-1.1754,-1.1838,-1.1848,-1.1858,-1.1966,-1.199,-1.201,0,0,0,0,0,0,-1.1785,-1.175,-1.1713,-1.1793,-1.1792,-1.1766,-1.1813,-1.1767,-1.1782,-1.1771,-1.1715,-1.1712,-1.1784,-1.1775,-1.172,-1.1852,-1.1777,-1.1789,-1.1856,-1.1878,-1.1896,-1.1897,-1.1625,0,0,0,0,0,-1.182,-1.1852,-1.182,-1.1893,-1.1894,-1.1854,-1.1868,-1.1833,-1.1831,-1.183,-1.1813,-1.1814,-1.184,-1.1858,-1.188,-1.1972,-1.1967,-1.2018,-1.2036,-1.2051,-1.2062,-1.2111,-1.2133,-1.1895,-1.1895,-1.1895,0,0,-1.1892,-1.1877,-1.1901,-1.1916,-1.1911,-1.1947,-1.1855,-1.1896,-1.1922,-1.1837,-1.1895,-1.1882,-1.1879,-1.1957,-1.199,-1.1952,-1.2127,-1.2063,-1.2076,-1.2079,-1.2123,-1.2146,-1.2166,-1.1902,-1.1901,-1.19,0,0,-1.2041,-1.2033,-1.2093,-1.209,-1.2084,-1.2056,-1.2071,-1.2051,-1.204,-1.2097,-1.2034,-1.2064,-1.211,-1.211,-1.2117,-1.2267,-1.2218,-1.2275,-1.2371,-1.2418,-1.2437,-1.2454,-1.2508,-1.2528,-1.2286,-1.2287,-1.2287,0,-1.2132,-1.2182,-1.213,-1.2176,-1.2185,-1.2108,-1.2169,-1.2169,-1.2171,-1.218,-1.2136,-1.2192,-1.2184,-1.2261,-1.2298,-1.2305,-1.2321,-1.2277,-1.2438,-1.2454,-1.2469,-1.252,-1.2541,-1.2294,-1.2293,-1.2292,-1.2292,0,-1.2294,-1.233,-1.238,-1.2383,-1.2397,-1.2451,-1.2407,-1.2428,-1.2392,-1.2369,-1.2429,-1.2417,-1.2435,-1.2451,-1.2416,-1.2523,-1.25,-1.2448,-1.2371,-1.25,-1.2547,-1.2566,-1.2304,-1.2302,-1.2299,-1.2298,0,0,-1.2517,-1.249,-1.2509,-1.251,-1.2497,-1.2525,-1.2575,-1.2592,-1.2612,-1.2615,-1.2657,-1.2697,-1.265,-1.2657,-1.2621,-1.2663,-1.2784,-1.2606,-1.2605,-1.2641,-1.2903,-1.2943,-1.2966,-1.2751,-1.2754,-1.2757,-1.2903,0,-1.2662,-1.2745,-1.27,-1.279,-1.2823,-1.275,-1.2794,-1.2792,-1.2772,-1.2798,-1.2776,-1.2806,-1.274,-1.2744,-1.2782,-1.2761,-1.2836,-1.275,-1.279,-1.2792,-1.2795,-1.2991,-1.3033,-1.3171,-1.2921,-1.2924,-1.2927,0,-1.2842,-1.2853,-1.2947,-1.2928,-1.294,-1.298,-1.2992,-1.3018,-1.3014,-1.2996,-1.3005,-1.2959,-1.3007,-1.293,-1.2997,-1.294,-1.2954,-1.2946,-1.295,-1.2953,-1.2868,-1.3,-1.3214,-1.3236,-1.2955,-1.2953,-1.2951,0,-1.2997,-1.3035,-1.3096,-1.3098,-1.3078,-1.3108,-1.3101,-1.3093,-1.3106,-1.3117,-1.3126,-1.3143,-1.3152,-1.3167,-1.3127,-1.3075,-1.32,-1.312,-1.3188,-1.319,-1.3219,-1.3218,-1.344,-1.3226,-1.3226,-1.3226,-1.3225,0,-1.3164,-1.3225,-1.3165,-1.3203,-1.3268,-1.3215,-1.3282,-1.3267,-1.3261,-1.3295,-1.3233,-1.3267,-1.3211,-1.324,-1.3209,-1.327,-1.3275,-1.3263,-1.3254,-1.3269,-1.3271,-1.3278,-1.3268,-1.3231,-1.323,-1.3229,-1.3228,0,-1.3349,-1.3311,-1.3373,-1.3348,-1.3343,-1.3393,-1.3372,-1.3406,-1.3382,-1.3426,-1.3433,-1.3396,-1.3426,-1.3387,-1.3414,-1.3393,-1.3477,-1.3453,-1.3478,-1.3472,-1.3543,-1.3538,-1.3779,-1.3808,-1.3575,-1.3577,-1.3579,0,-1.3458,-1.3503,-1.3483,-1.3501,-1.3497,-1.3527,-1.354,-1.349,-1.3507,-1.3506,-1.3541,-1.3565,-1.3583,-1.3634,-1.361,-1.363,-1.3608,-1.369,-1.361,-1.3624,-1.361,-1.3609,-1.3613,-1.3708,-1.371,-1.3713,-1.3714,0,-1.3658,-1.3637,-1.3658,-1.3673,-1.369,-1.37,-1.3704,-1.3723,-1.367,-1.3692,-1.3722,-1.3735,-1.3762,-1.3788,-1.3802,-1.3795,-1.3748,-1.374,-1.3757,-1.3773,-1.3787,-1.3782,-1.3524,-1.3735,-1.3733,-1.3731,-1.373,-1.3729,-1.3809,-1.3845,-1.3837,-1.3863,-1.3861,-1.3867,-1.3898,-1.3877,-1.3901,-1.3918,-1.3887,-1.3925,-1.3921,-1.3934,-1.3933,-1.3962,-1.3927,-1.3951,-1.3958,-1.3965,-1.3977,-1.3781,-1.3965,-1.3964,-1.3963,-1.3963,-1.3962,0,-1.4006,-1.3997,-1.4021,-1.4029,-1.405,-1.4001,-1.4004,-1.4025,-1.4059,-1.4058,-1.4076,-1.411,-1.4135,-1.4113,-1.4133,-1.4161,-1.414,-1.4168,-1.4166,-1.4166,-1.4007,-1.399,-1.4185,-1.4185,-1.4185,-1.4185,-1.4185,-1.4185,-1.4111,-1.4171,-1.4149,-1.4207,-1.4197,-1.4234,-1.424,-1.4245,-1.4244,-1.4285,-1.4305,-1.429,-1.4281,-1.43,-1.4321,-1.4313,-1.4324,-1.4362,-1.4347,-1.4199,-1.4177,-1.4156,-1.4141,-1.4364,-1.4364,-1.4503,-1.4505,-1.4506]},{"header":{"parameterUnit":"m.s-1","parameterCategory":1,"la1":30.2991,"la2":30.254,"lo1":-89.0895,"lo2":-89.0444,"dy":0.0017,"dx":0.0017,"nx":28,"ny":28,"refTime":"2025-08-04T09:00:00:Z","depth":0,"parameterNumber":3,"parameterNumberName":"V-component_of_WINDS"},"data":[0,0,0,0,0,0,0,0,0,0,0,0,0,0,0,0,0,0,0,0,0,0,0,0,0,0,0,0,0,0,0,0,0,0,0,0,0,0,0,0,0,0,0,0,0,0,0,0,0,0,0,0,0,0,0,0,0,0,-2.8405,-2.8405,0,-2.8384,-2.8384,-2.8383,-2.832,-2.8318,-2.8317,-2.8315,-2.8293,-2.8293,-2.8294,0,0,0,0,0,0,0,0,0,0,0,0,0,-2.8388,-2.8389,-2.8405,-2.8405,-2.8405,-2.8384,-2.8384,-2.8383,-2.832,-2.8318,-2.8316,-2.8315,-2.8292,-2.8293,-2.8294,0,0,0,0,0,0,0,0,0,0,0,0,0,-2.8384,-2.8389,-2.8405,-2.837,-2.8367,-2.8384,-2.8384,-2.8383,-2.832,-2.8318,-2.8316,-2.8314,-2.8292,-2.8293,-2.8294,-2.8343,0,0,-2.8297,-2.8298,0,0,0,0,0,0,0,0,-2.8384,-2.8385,-2.8376,-2.8373,-2.8369,-2.8352,-2.8369,-2.837,-2.8321,-2.8338,-2.8315,-2.8313,-2.8314,-2.8313,-2.8314,-2.8342,-2.8341,-2.8297,-2.8298,-2.8299,-2.8299,0,0,0,0,0,0,0,-2.8385,-2.8385,-2.8397,-2.8376,-2.8372,-2.8355,-2.8352,-2.8369,-2.8338,-2.8336,-2.8332,-2.833,-2.8312,-2.8313,-2.8313,-2.834,-2.8297,-2.8298,-2.8299,-2.8299,-2.8403,-2.8405,0,0,0,0,0,0,-2.839,-2.8386,-2.8397,-2.8396,-2.8372,-2.8357,-2.8354,-2.836,-2.8338,-2.8332,-2.8332,-2.8327,-2.8312,-2.8312,-2.8312,-2.8365,-2.8299,-2.8299,-2.83,-2.8401,-2.8404,-2.8406,0,0,0,0,0,0,-2.839,-2.8392,-2.8398,-2.839,-2.8389,-2.836,-2.8367,-2.8361,-2.8361,-2.8334,-2.8328,-2.8339,-2.831,-2.831,-2.8335,-2.8363,-2.83,-2.8301,-2.8399,-2.8402,-2.8405,-2.8473,0,0,0,0,0,0,-2.839,-2.8392,-2.8411,-2.8391,-2.839,-2.8423,-2.8369,-2.8362,-2.8364,-2.8357,-2.8339,-2.8334,-2.8309,-2.8334,-2.8336,-2.8364,-2.8302,-2.8396,-2.84,-2.8404,-2.8468,-2.8478,-2.8487,0,0,0,0,0,-2.839,-2.8432,-2.8413,-2.8414,-2.8413,-2.8425,-2.8424,-2.8394,-2.8366,-2.8384,-2.8366,-2.8335,-2.836,-2.8337,-2.8339,-2.8367,-2.8394,-2.8399,-2.8404,-2.8464,-2.8476,-2.8487,0,0,0,0,0,0,-2.8457,-2.8428,-2.8407,-2.8444,-2.8437,-2.8414,-2.8436,-2.8409,-2.841,-2.8404,-2.8366,-2.8363,-2.8392,-2.8382,-2.8357,-2.8411,-2.8372,-2.8377,-2.8417,-2.8428,-2.8437,-2.8439,-2.8303,0,0,0,0,0,-2.8476,-2.8488,-2.8463,-2.8498,-2.8495,-2.8466,-2.847,-2.8448,-2.8439,-2.8436,-2.842,-2.8412,-2.8418,-2.8423,-2.8427,-2.8467,-2.846,-2.8487,-2.8496,-2.8504,-2.8509,-2.8526,-2.8537,-2.8422,-2.8422,-2.8422,0,0,-2.8516,-2.8502,-2.8512,-2.8511,-2.8503,-2.8515,-2.8464,-2.848,-2.8489,-2.8438,-2.846,-2.8448,-2.8436,-2.8468,-2.8481,-2.8461,-2.8539,-2.851,-2.8517,-2.8517,-2.8533,-2.8543,-2.8553,-2.8425,-2.8425,-2.8424,0,0,-2.8594,-2.8585,-2.8612,-2.8605,-2.8593,-2.8573,-2.858,-2.856,-2.855,-2.8572,-2.8533,-2.8542,-2.8554,-2.8546,-2.8544,-2.8617,-2.8587,-2.862,-2.8668,-2.8686,-2.8695,-2.8703,-2.8727,-2.8736,-2.8625,-2.8625,-2.8625,0,-2.8644,-2.8662,-2.863,-2.8647,-2.8647,-2.8601,-2.8627,-2.8622,-2.8612,-2.8612,-2.859,-2.8601,-2.8591,-2.8619,-2.8636,-2.8637,-2.8642,-2.8621,-2.8696,-2.8704,-2.8711,-2.8733,-2.8742,-2.8629,-2.8628,-2.8628,-2.8627,0,-2.8724,-2.8736,-2.876,-2.8751,-2.8753,-2.8775,-2.8744,-2.875,-2.8727,-2.8709,-2.873,-2.8715,-2.8715,-2.872,-2.8698,-2.8744,-2.8731,-2.8703,-2.8662,-2.8726,-2.8746,-2.8755,-2.8634,-2.8633,-2.8632,-2.8631,0,0,-2.8845,-2.8816,-2.8825,-2.8819,-2.8802,-2.8811,-2.883,-2.8829,-2.8833,-2.8828,-2.8841,-2.8851,-2.8824,-2.8822,-2.8798,-2.8814,-2.8869,-2.8783,-2.8782,-2.8798,-2.8917,-2.8937,-2.8948,-2.885,-2.8851,-2.8853,-2.8917,0,-2.8917,-2.8948,-2.8918,-2.8955,-2.8965,-2.892,-2.8936,-2.8927,-2.891,-2.8915,-2.8896,-2.8903,-2.8868,-2.8866,-2.8879,-2.886,-2.8893,-2.8855,-2.886,-2.8861,-2.8864,-2.8959,-2.8981,-2.9043,-2.8925,-2.8927,-2.8928,0,-2.9006,-2.9004,-2.9041,-2.9019,-2.9022,-2.9037,-2.9033,-2.9039,-2.9026,-2.9013,-2.9009,-2.898,-2.8995,-2.8956,-2.8975,-2.895,-2.895,-2.8941,-2.8942,-2.8941,-2.8898,-2.8959,-2.9063,-2.9071,-2.894,-2.8939,-2.8938,0,-2.9088,-2.9095,-2.9117,-2.9114,-2.9089,-2.91,-2.9091,-2.9076,-2.9076,-2.9072,-2.9071,-2.9069,-2.9068,-2.9066,-2.9036,-2.9011,-2.9058,-2.9017,-2.9046,-2.9047,-2.9057,-2.9057,-2.9161,-2.906,-2.906,-2.906,-2.906,0,-2.9172,-2.9196,-2.9153,-2.9167,-2.9192,-2.9156,-2.9182,-2.9167,-2.9154,-2.9163,-2.9125,-2.9134,-2.9095,-2.9099,-2.9076,-2.9094,-2.9094,-2.9082,-2.9076,-2.9085,-2.9086,-2.9084,-2.9078,-2.9062,-2.9062,-2.9061,-2.9061,0,-2.9268,-2.9241,-2.9261,-2.9236,-2.923,-2.9249,-2.9227,-2.9237,-2.9218,-2.9229,-2.923,-2.9199,-2.9202,-2.9172,-2.9169,-2.9153,-2.9182,-2.9168,-2.9186,-2.9181,-2.9211,-2.9208,-2.9317,-2.9328,-2.9221,-2.9222,-2.9223,0,-2.9323,-2.934,-2.9316,-2.9319,-2.9311,-2.9317,-2.9316,-2.9282,-2.9283,-2.9268,-2.928,-2.928,-2.9278,-2.9284,-2.9261,-2.9258,-2.9243,-2.9281,-2.9242,-2.925,-2.9241,-2.924,-2.9241,-2.9289,-2.929,-2.9292,-2.9292,0,-2.9422,-2.9407,-2.9408,-2.9404,-2.9405,-2.94,-2.9393,-2.9398,-2.9359,-2.9362,-2.9365,-2.9363,-2.9359,-2.9359,-2.9351,-2.9339,-2.9309,-2.9305,-2.9311,-2.932,-2.9329,-2.9323,-2.9207,-2.9302,-2.9301,-2.9301,-2.93,-2.93,-2.9498,-2.951,-2.9494,-2.9496,-2.9487,-2.948,-2.9488,-2.9469,-2.947,-2.9465,-2.9444,-2.9449,-2.9433,-2.942,-2.9411,-2.9413,-2.9395,-2.9404,-2.9406,-2.9409,-2.9414,-2.933,-2.9412,-2.9412,-2.9411,-2.9411,-2.9411,0,-2.9593,-2.958,-2.9583,-2.9573,-2.9574,-2.9546,-2.9535,-2.9538,-2.9543,-2.9531,-2.9529,-2.9531,-2.9529,-2.9505,-2.95,-2.9507,-2.9493,-2.9507,-2.9505,-2.9503,-2.9432,-2.9426,-2.9518,-2.9518,-2.9518,-2.9518,-2.9518,-2.9518,-2.9643,-2.9662,-2.9644,-2.9657,-2.9644,-2.9649,-2.9645,-2.9638,-2.9628,-2.9631,-2.963,-2.9614,-2.9596,-2.9589,-2.9586,-2.9579,-2.9578,-2.9596,-2.9584,-2.9518,-2.9508,-2.9498,-2.9492,-2.9597,-2.9597,-2.9655,-2.9655,-2.9656]}]]